Orbital Elements at Epoch 2459200.5 (2020-Dec-17.0) TDB
Reference: JPL 22 (heliocentric ecliptic J2000)
Element | Value | Uncertainty (1-sigma) | Units |
e | .315095030044997 | 6.5269e-08 | |
a | 2.756492232840589 | 1.3122e-08 | au |
q | 1.887935229914883 | 1.8325e-07 | au |
i | 9.151934833464194 | 7.0833e-06 | deg |
node | 36.8386009090254 | 2.0784e-05 | deg |
peri | 359.8721511424914 | 2.1683e-05 | deg |
M | 243.3197987407995 | 5.4091e-06 | deg |
tp | 2459742.286594810739 (2022-Jun-11.78659481) | 2.7404e-05 | TDB |
period | 1671.604711227618 4.58 | 1.1936e-05 3.268e-08 | d yr |
n | .2153619199455461 | 1.5378e-09 | deg/d |
Q | 3.625049235766296 | 1.7256e-08 | au |
|
| | Orbit Determination Parameters
Additional Information
|